Wind_Speed
15 16 18 20 17 17 18 19 17 15 14 15 15 15 16 18 18 17 17 17 20 20 20 22 23 23 22 21 20 19 19 19 20
15 15 14 16 15 16 17 16 16 14 14 15 14 14 14 17 18 17 16 18 19 20 21 21 21 21 20 17 17 18 20 20 19
16 15 17 18 17 17 15 15 16 15 15 14 12 12 13 15 18 18 15 18 18 18 20 20 19 20 18 17 17 18 20 19 20
17 15 18 16 14 12 17 15 16 17 15 13 11 13 13 13 15 15 14 16 17 17 19 20 19 16 17 18 18 18 18 19 19
15 17 18 15 12 11 18 16 16 16 15 12 12 13 11 13 14 17 13 15 16 16 20 18 19 20 20 18 17 16 17 15 18
15 16 16 13 11 18 19 17 17 17 15 13 12 12 12 14 15 13 15 12 16 20 20 18 19 19 18 18 17 16 15 20 22
16 19 16 15 15 18 19 17 17 18 17 14 11 10 12 11 11 11 12 16 19 22 20 18 18 19 18 17 16 14 21 21 20
19 15 17 18 19 17 18 17 18 20 17 14 11 9 14 8 10 10 15 17 21 20 19 19 19 18 18 17 16 19 18 18 17
19 19 20 22 21 16 19 18 18 19 16 13 11 12 13 8 12 12 12 21 22 20 18 18 16 17 14 19 20 18 16 15 14
20 18 22 23 19 15 19 18 19 18 17 13 11 13 9 8 11 10 21 21 19 18 16 15 15 17 15 18 16 14 14 14 12
22 19 20 19 16 13 18 18 19 18 15 13 11 10 9 9 13 14 17 17 16 16 15 14 15 15 18 17 16 15 11 12 11
28 24 21 17 15 16 17 19 18 19 17 12 13 11 11 12 11 12 15 15 14 13 14 14 17 17 17 16 15 15 13 9 10
30 26 24 21 16 17 21 20 19 18 16 14 13 12 11 11 11 13 15 13 13 11 13 14 16 18 15 14 14 12 13 10 9
31 28 25 22 18 18 22 20 20 18 16 14 13 12 11 12 12 14 16 14 14 11 12 17 15 15 15 16 13 11 12 10 9
30 30 25 23 20 20 23 21 20 19 18 14 12 10 9 10 12 14 17 17 15 12 14 15 14 11 19 16 12 10 11 9 8
28 31 27 25 22 22 25 22 20 18 18 17 9 6 7 8 9 13 17 19 18 16 17 18 16 13 17 15 13 10 12 9 9
29 31 30 28 25 25 27 26 22 16 21 10 9 2 4 7 10 12 16 16 19 18 18 20 18 17 17 16 12 6 9 10 9
31 31 32 30 27 28 29 28 28 17 21 14 7 2 4 4 9 13 14 16 20 21 19 21 20 18 20 18 15 10 8 11 10
33 33 32 31 30 29 31 29 30 26 21 18 13 7 5 3 3 8 14 18 18 21 21 21 23 22 22 21 17 14 11 12 11
34 35 34 33 33 32 33 32 31 30 26 21 19 11 7 7 2 3 7 14 18 19 23 22 24 26 24 23 20 17 14 14 13
Wind_Direction
134 141 141 144 143 134 131 131 133 130 125 122 125 124 116 111 109 104 113 109 107 105 102 99 94 89 84 80 82 83 80 85 82
151 153 147 151 143 140 135 133 132 130 133 128 122 126 128 117 110 108 108 110 105 105 103 97 93 90 85 85 82 86 94 88 87
161 160 156 155 142 138 137 137 136 137 134 125 121 134 135 132 121 116 109 110 105 103 103 100 96 92 88 90 95 96 91 95 95
164 164 163 163 153 153 147 144 141 145 140 129 127 139 134 135 139 129 119 115 110 111 109 105 101 92 96 102 98 92 95 98 102
165 163 166 169 179 166 153 149 146 148 144 136 125 137 143 138 134 134 131 120 121 120 115 108 103 105 104 98 101 107 107 108 108
174 167 167 175 173 160 156 156 149 152 148 143 135 135 134 138 138 136 141 129 136 132 119 113 108 111 107 113 107 112 115 102 92
178 178 181 172 160 161 165 157 154 156 153 156 151 147 144 145 144 141 158 137 140 130 123 115 112 113 112 113 117 111 101 99 97
177 171 164 162 157 152 167 159 155 154 157 159 154 148 165 148 148 152 147 153 139 128 123 119 119 119 125 124 125 109 102 95 94
181 187 183 169 167 168 165 162 161 160 159 157 151 146 155 148 152 158 173 148 134 128 126 125 125 127 132 126 117 107 101 98 91
174 182 178 171 165 163 169 165 165 163 161 160 149 153 154 130 147 146 141 136 136 132 128 130 132 133 136 129 123 119 103 100 99
187 182 167 173 170 178 175 169 167 167 165 164 165 161 169 154 153 143 141 141 138 137 136 141 142 139 134 127 119 110 103 110 109
186 191 191 188 189 194 179 172 168 167 165 172 171 161 161 169 160 154 155 147 139 138 144 148 147 148 137 131 126 123 119 120 118
187 192 195 198 200 190 180 177 170 169 168 166 168 163 164 174 178 169 163 161 157 155 155 159 165 153 148 145 138 133 130 132 125
191 193 194 192 190 185 182 177 176 170 169 170 163 168 168 167 172 176 173 179 173 164 165 162 156 159 160 148 142 133 138 141 136
196 196 193 192 189 186 184 183 179 174 172 168 156 163 175 180 183 187 187 191 186 185 179 172 170 181 164 153 152 146 145 149 154
197 198 196 195 193 189 185 181 181 172 173 163 146 162 191 209 204 204 207 197 194 194 195 188 179 183 173 174 163 156 161 163 168
195 198 200 199 195 191 188 187 175 174 176 168 161 153 214 225 226 219 216 210 207 199 197 196 194 186 180 187 194 194 172 174 180
200 199 202 203 201 195 192 192 189 170 183 183 171 150 218 179 219 218 212 218 209 206 206 207 206 200 200 199 202 208 190 181 190
203 205 204 206 207 204 198 197 197 189 183 191 196 188 166 184 190 220 216 227 219 213 211 211 214 212 209 212 210 209 206 189 192
209 209 208 208 211 210 206 201 200 201 196 192 193 193 181 166 151 175 202 222 222 221 222 225 223 216 219 214 217 213 213 205 197
Height
844 845 848 849 851 853 856 857 859 861 862 863 865 866 867 867 868 870 871 873 873 874 874 875 876 877 878 880 880 880 881 880 881
845 847 849 851 853 854 857 859 861 862 864 865 866 868 869 870 871 873 874 875 876 876 877 878 879 879 880 882 884 884 883 884 885
846 848 850 852 854 855 858 860 862 864 866 867 868 869 871 872 873 874 877 877 878 879 880 880 882 882 883 885 887 887 888 887 887
846 848 851 852 854 856 859 861 863 865 867 869 869 871 872 873 875 876 878 879 880 881 882 883 884 885 886 888 888 891 891 891 891
846 849 851 853 855 857 860 862 864 867 869 870 871 872 873 875 876 878 880 881 882 883 884 885 886 887 889 891 892 893 894 893 893
848 850 851 853 855 858 861 863 865 868 870 872 873 874 875 876 878 879 881 881 883 884 886 887 888 890 891 893 895 895 896 895 896
847 850 852 853 856 859 861 864 866 868 871 873 874 876 876 878 879 880 882 883 884 886 887 889 891 892 894 895 897 898 898 898 899
847 849 852 854 857 860 862 865 867 869 871 874 875 876 878 879 880 882 883 884 885 887 889 891 893 894 896 897 899 899 901 902 902
846 848 850 853 856 859 862 865 867 870 872 874 876 877 878 880 881 882 883 884 886 889 891 892 894 895 898 899 899 901 903 904 906
846 847 850 853 856 859 862 865 868 870 873 875 877 879 880 881 882 883 884 887 889 890 892 894 896 897 899 900 901 903 906 907 909
844 847 850 853 856 859 862 865 868 871 873 876 878 880 881 883 884 885 887 889 891 892 893 895 897 898 901 903 904 905 909 909 910
843 847 850 853 855 858 862 865 868 870 873 876 878 880 882 884 885 887 889 891 893 894 895 896 899 901 902 904 905 906 907 911 912
841 846 848 852 854 857 861 864 867 870 873 875 878 880 882 884 886 888 890 892 894 896 897 898 900 902 904 906 907 908 908 912 912
838 843 847 850 853 856 859 863 866 869 872 875 877 880 882 884 886 888 890 893 894 896 898 899 901 903 905 906 909 909 910 912 913
836 841 845 848 851 854 858 862 865 868 871 874 877 879 882 884 885 887 890 892 894 896 898 900 902 903 905 907 909 910 911 912 915
832 838 842 845 848 851 856 860 864 867 870 873 877 879 881 883 885 886 888 891 893 895 897 899 901 904 905 906 909 910 911 912 914
828 833 838 842 845 849 852 856 861 865 868 871 875 880 883 882 883 885 886 889 891 893 896 897 900 902 904 905 906 908 910 912 913
824 829 834 838 842 845 849 853 857 861 866 869 872 877 877 880 881 883 884 887 889 891 894 896 898 900 902 903 905 907 907 911 914
819 825 829 834 838 841 845 850 854 857 862 867 868 871 873 875 879 880 881 884 885 888 891 893 895 897 899 901 903 905 907 907 911
815 820 824 829 834 837 841 846 850 854 857 861 865 869 871 872 875 876 879 881 882 884 887 890 892 894 896 898 901 902 904 906 907